STARLINK-31959, 59925

Orbit data source: Space-Track

STARLINK-31959, 59925 is a payload satellite owned by SpaceX/Seattle (US) in LEO that was launched on Sat, 01 Jun 2024 UTC via an FALCON 9 launch vehicle from the Air Force Eastern Test Range (AFETR). Payload-class satellites include a variety of spacecraft equipped with specific instruments for various scientific and technological missions. These include communications satellites like Starlink; space stations such as the ISS; scientific satellites like the Hubble; Earth observation satellites from companies like Planet Labs, Umbra, and HawkEye 360; GPS; miniature CubeSats for education and research; and military/defense satellites.

Loading next visibility...
Identifier
59925, 2024-106D
Orbit
LEO
Last TLE update
9 hours ago
Origin
Manufacturer
SpaceX/Seattle
Mission
Operational spacecraft
Bus & Motor
STARLINK V2M, Unknown motor
Mass
730 kg wet, ~700 kg dry
Launch date (UTC)
2024-06-01 (1 year ago)
Launch vehicle
FALCON 9
Launch site
Air Force Eastern Test Range (AFETR)
Object type
Payload
Rocket body
Debris
Shape & HBR
Unknown
Radar Cross Section
Large (>1 m²)

Expand to show TLE details & history

TLE from 9 hours ago
0 STARLINK-31959
1 59925U 24106D   25182.06537113  .00000533  00000-0  28877-4 0  9994
2 59925  43.0023 309.7221 0001515 271.6415  88.4263 15.27587425 62102
Epoch: 2025-07-01T01:34Z
TLE epoch observation values (Epoch: 2025-07-01T01:34:08.065Z)
Latitude
-0.00003°
Longitude
6.82228°
Altitude
482.774 km
Speed
7.626 km/s
True Right ascension
20h 38m 53s
True Declination
0° 00' 00"
Sunlit
Object was in full shadow at epoch
Visualization orbit readout
Latitude
-14.04503°
Longitude
-159.75885°
Altitude
485.371 km
Speed
7.624 km/s
Apparent Right ascension
09h 42m 24s
Apparent Declination
-26° 23' 04"
Sunlit
Object is in daylight
Visualization observer readout
Local Sidereal Time
21:55:48
Azimuth
12.653° NNE
Elevation
-76.184°
Doppler factor
1
Orbital elements
Apogee altitude
486.011 km
Perigee altitude
483.932 km
Semi-major axis
6,863.109 km
Eccentricity
0.00015
Inclination
43.0023°
RAAN
309.7221°
Arg. of periapsis
271.6415°
True anomaly
Unknown
Mean anomaly
88.4263°
Eccentric anomaly
Unknown
Mean motion
3.81735 °/min
Orbital period
94.31 mins
BSTAR
0.000028877
Loading maneuver chart data...
Loading SW <> Apogee altitude chart data...
Loading historical data...
Loading historical data...
Loading historical data...
Loading historical data...
Loading historical data...
Loading historical data...
Loading historical data...

STARLINK-31959 Visibility forecast

Observer location: undefined°, undefined°

Span
Click to sort rows by Start time (UTC) header in descending order
Start Az.
Max El. time (UTC)
Max El. Az.
Max El.
End time (UTC)
End Az.
4 mins2025-07-01 11:10:22.572Z180.994° SSW2025-07-01 11:12:22.572Z143.325° SSE17.794°2025-07-01 11:14:22.572Z106.075° ESE
6 mins2025-07-01 12:48:22.572Z244.159° WSW2025-07-01 12:51:22.572Z94.11° ESE42.267°2025-07-01 12:54:22.572Z73.282° E
6 mins2025-07-01 14:27:22.572Z283.951° WNW2025-07-01 14:30:22.572Z20.054° NNE37.344°2025-07-01 14:33:22.572Z73.543° E
5 mins2025-07-01 16:07:22.572Z294.542° NW2025-07-01 16:09:22.572Z42.195° NE43.496°2025-07-01 16:12:22.572Z99.528° ESE
4 mins2025-07-01 17:46:22.572Z255.378° W2025-07-01 17:48:22.572Z197.86° SSW27.165°2025-07-01 17:50:22.572Z155.757° SSE
|